sat.trackr.live / text

‹ back to catalog

STARLINK-32560

NORAD 61982 · 2024-210Z

PAYLOAD ACTIVE UNKNOWN

§ Identity

Operator
Country
US
Launch date
2024-11-14
Launch site
AFETR
Launch vehicle
Mass (kg)
RCS (m²)

Purposes: comms

External: N2YO · Heavens-Above · Gunter

§ Orbital elements

Epoch: 2026-05-25T04:43:38.174304Z

Period
94.27 min
Inclination
42.9950°
Eccentricity
0.0000574
Mean motion
15.27590793 rev/d
Perigee alt
482.6 km
Apogee alt
483.4 km
Semi-major
6,861.2 km
B*
6.6967e-4
RAAN
107.4970°
Arg perigee
290.1724°
Mean anomaly
69.9066°
Rev number
8,658

§ Raw data

STARLINK-325601 61982U 24210Z   26145.19696961  .00018218  00000+0  66967-3 0  99962 61982  42.9950 107.4970 0000574 290.1724  69.9066 15.27590793 86587

JSON: /api/v1/satellites/61982 · /tle

For live sub-satellite position, see the globe view (requires WebGL).

§ Visibility from observer

Set your observer location to see the next 7 days of passes ≥ 10°. The values pass through the URL so the page stays shareable.

No JS? Fill the form by hand. The geolocation button needs JavaScript.